Okean-O - Orbit

View from above orbital plane
View from above orbital plane
View from above satellite
View from above satellite

Ground track
Ground track

The orbit data is extracted from the following two-line orbital elements,

1 25860U 99039A   13143.81463188  .00000663  00000-0  10698-3 0  9523
2 25860 097.9881 106.5942 0001215 133.7348 256.8198 14.74592531744768
Epoch (UTC): 23 May 2013 19:33:04
Eccentricity: 0.0001215
inclination: 97.9881°
perigee height: 645 km
apogee height: 647 km
right ascension of ascending node: 106.5942°
argument of perigee: 133.7348°
revolutions per day: 14.74592531
mean anomaly at epoch: 256.8198°
orbit number at epoch: 74476

The dashed part of the orbit path shows where the satellite is in the earth's shadow,  

Developed and maintained by Chris Peat, Heavens-Above GmbH. Please read the updated FAQ before sending e-mail. Imprint. DLR